,,,PA_Meas_PMT16A,,PR_Meas_QMR101_102,,RH_Meas_QMH101,,SR_Meas_QMS101,,TA_Meas_QMH101,,GenWind,,GenWind,
date,time,status,PA,status,PR,status,RH,status,SR,status,TA,status,DirAvg,status,SpdAvg,
2008-05-08, 00:00:04,VALID,1001.56,VALID,0,VALID,104,VALID,0,VALID,23.7443,VALID,177,VALID,2.27383,
2008-05-08, 00:01:04,VALID,1001.58,VALID,0,VALID,104,VALID,0,VALID,23.7832,VALID,241,VALID,0.521094,
2008-05-08, 00:02:04,VALID,1001.57,VALID,0,VALID,104,VALID,0,VALID,23.8027,VALID,206,VALID,0.684766,
2008-05-08, 00:03:04,VALID,1001.51,VALID,0,VALID,104,VALID,0,VALID,23.8416,VALID,199,VALID,1.18242,
2008-05-08, 00:04:04,VALID,1001.55,VALID,0,VALID,104,VALID,0,VALID,23.9,VALID,187,VALID,1.21719,
2008-05-08, 00:05:04,VALID,1001.54,VALID,0,VALID,104,VALID,0,VALID,23.9602,VALID,179,VALID,0.769922,
2008-05-08, 00:06:04,VALID,1001.57,VALID,0,VALID,104,VALID,0,VALID,24.0168,VALID,193,VALID,1.19883,
2008-05-08, 00:07:04,VALID,1001.52,VALID,0,VALID,104,VALID,0,VALID,24.0168,VALID,220,VALID,1.58086,
2008-05-08, 00:08:04,VALID,1001.58,VALID,0,VALID,104,VALID,0,VALID,23.8203,VALID,218,VALID,2.0125,
2008-05-08, 00:09:04,VALID,1001.58,VALID,0,VALID,104,VALID,0,VALID,23.6664,VALID,188,VALID,1.60391,
2008-05-08, 00:10:04,VALID,1001.59,VALID,0,VALID,104,VALID,0,VALID,23.5885,VALID,183,VALID,0.809766,
2008-05-08, 00:11:04,VALID,1001.59,VALID,0,VALID,104,VALID,0,VALID,23.5089,VALID,188,VALID,1.74336,
2008-05-08, 00:12:04,VALID,1001.57,VALID,0.5,VALID,104,VALID,0,VALID,23.4718,VALID,189,VALID,1.1082,
2008-05-08, 00:13:04,VALID,1001.59,VALID,0,VALID,104,VALID,0,VALID,23.4328,VALID,211,VALID,0.8625,
2008-05-08, 00:14:04,VALID,1001.6,VALID,0,VALID,104,VALID,0,VALID,23.4328,VALID,198,VALID,0.683203,
2008-05-08, 00:15:04,VALID,1001.6,VALID,0,VALID,104,VALID,0,VALID,23.4328,VALID,182,VALID,1.35781,
2008-05-08, 00:16:04,VALID,1001.62,VALID,0,VALID,104,VALID,0,VALID,23.4328,VALID,184,VALID,0.487891,
2008-05-08, 00:17:04,VALID,1001.64,VALID,0,VALID,104,VALID,0,VALID,23.4718,VALID,166,VALID,0.457422,
2008-05-08, 00:18:04,VALID,1001.65,VALID,0,VALID,104,VALID,0,VALID,23.5107,VALID,220,VALID,1.04805,
2008-05-08, 00:19:04,VALID,1001.66,VALID,0,VALID,104,VALID,0,VALID,23.5302,VALID,182,VALID,1.01367,
2008-05-08, 00:20:04,VALID,1001.67,VALID,0,VALID,104,VALID,0,VALID,23.5496,VALID,206,VALID,0.779688,
2008-05-08, 00:21:04,VALID,1001.68,VALID,0,VALID,104,VALID,0,VALID,23.6275,VALID,168,VALID,1.14414,
2008-05-08, 00:22:04,VALID,1001.66,VALID,0,VALID,104,VALID,0,VALID,23.6469,VALID,208,VALID,0.871484,
2008-05-08, 00:23:04,VALID,1001.69,VALID,0,VALID,104,VALID,0,VALID,23.6664,VALID,181,VALID,0.571094,
2008-05-08, 00:24:04,VALID,1001.69,VALID,0,VALID,104,VALID,0,VALID,23.7053,VALID,192,VALID,0.811719,
2008-05-08, 00:25:04,VALID,1001.7,VALID,0.5,VALID,104,VALID,0,VALID,23.7637,VALID,158,VALID,1.52266,
2008-05-08, 00:26:04,VALID,1001.69,VALID,0,VALID,104,VALID,0,VALID,23.8027,VALID,165,VALID,1.38008,
2008-05-08, 00:27:04,VALID,1001.68,VALID,0,VALID,104,VALID,0,VALID,23.8009,VALID,143,VALID,1.89336,
2008-05-08, 00:28:04,VALID,1001.67,VALID,0,VALID,104,VALID,0,VALID,23.8203,VALID,154,VALID,1.25859,
2008-05-08, 00:29:04,VALID,1001.65,VALID,0,VALID,104,VALID,0,VALID,23.8416,VALID,165,VALID,0.755078,
2008-05-08, 00:30:04,VALID,1001.6,VALID,0,VALID,104,VALID,0,VALID,23.8416,VALID,145,VALID,2.04648,
2008-05-08, 00:31:04,VALID,1001.63,VALID,0,VALID,104,VALID,0,VALID,23.8416,VALID,161,VALID,1.28203,
2008-05-08, 00:32:04,VALID,1001.6,VALID,0,VALID,104,VALID,0,VALID,23.8221,VALID,171,VALID,1.3375,
2008-05-08, 00:33:04,VALID,1001.6,VALID,0.5,VALID,104,VALID,0,VALID,23.8221,VALID,164,VALID,0.872266,
2008-05-08, 00:34:04,VALID,1001.58,VALID,0,VALID,104,VALID,0,VALID,23.8416,VALID,145,VALID,0.958594,
2008-05-08, 00:35:04,VALID,1001.58,VALID,0,VALID,104,VALID,0,VALID,23.8221,VALID,151,VALID,1.62812,
2008-05-08, 00:36:04,VALID,1001.54,VALID,0,VALID,104,VALID,0.100563,VALID,23.8221,VALID,146,VALID,1.74063,
2008-05-08, 00:37:04,VALID,1001.52,VALID,0,VALID,104,VALID,0,VALID,23.8416,VALID,173,VALID,1.21641,
2008-05-08, 00:38:04,VALID,1001.48,VALID,0,VALID,103.898,VALID,0.100563,VALID,23.8611,VALID,161,VALID,1.52031,
2008-05-08, 00:39:04,VALID,1001.48,VALID,0,VALID,104,VALID,0,VALID,23.7832,VALID,158,VALID,1.20938,
2008-05-08, 00:40:04,VALID,1001.44,VALID,0,VALID,104,VALID,0,VALID,23.8009,VALID,145,VALID,2.53633,
2008-05-08, 00:41:04,VALID,1001.38,VALID,0,VALID,104,VALID,0,VALID,23.8221,VALID,169,VALID,1.25508,
2008-05-08, 00:42:04,VALID,1001.33,VALID,0,VALID,104,VALID,0,VALID,23.8824,VALID,131,VALID,2.10781,
2008-05-08, 00:43:04,VALID,1001.31,VALID,0,VALID,104,VALID,0,VALID,23.9389,VALID,167,VALID,2.45937,
2008-05-08, 00:44:04,VALID,1001.24,VALID,0.5,VALID,104,VALID,0,VALID,23.9973,VALID,174,VALID,1.81367,
2008-05-08, 00:45:04,VALID,1001.22,VALID,0,VALID,104,VALID,0,VALID,24.0363,VALID,163,VALID,1.45664,
2008-05-08, 00:46:04,VALID,1001.18,VALID,0,VALID,104,VALID,0,VALID,24.0947,VALID,178,VALID,2.50703,
2008-05-08, 00:47:04,VALID,1001.13,VALID,0,VALID,104,VALID,0,VALID,24.1123,VALID,172,VALID,1.32187,
2008-05-08, 00:48:04,VALID,1001.1,VALID,0,VALID,104,VALID,0,VALID,24.192,VALID,163,VALID,1.0875,
2008-05-08, 00:49:04,VALID,1001.05,VALID,0,VALID,104,VALID,0,VALID,24.2115,VALID,136,VALID,0.722266,
2008-05-08, 00:50:04,VALID,1001.03,VALID,0,VALID,104,VALID,0.100563,VALID,24.2894,VALID,201,VALID,2.64023,
2008-05-08, 00:51:04,VALID,1000.98,VALID,0,VALID,104,VALID,0.100563,VALID,24.3265,VALID,156,VALID,1.28125,
2008-05-08, 00:52:04,VALID,1000.96,VALID,0,VALID,103.684,VALID,0,VALID,24.3654,VALID,167,VALID,1.72383,
2008-05-08, 00:53:04,VALID,1000.93,VALID,0,VALID,103.287,VALID,0,VALID,24.3867,VALID,188,VALID,3.04375,
2008-05-08, 00:54:04,VALID,1000.87,VALID,0.5,VALID,102.631,VALID,0,VALID,24.4257,VALID,204,VALID,1.23828,
2008-05-08, 00:55:04,VALID,1000.86,VALID,0,VALID,102.082,VALID,0.100563,VALID,24.4451,VALID,192,VALID,1.69922,
2008-05-08, 00:56:04,VALID,1000.86,VALID,0,VALID,101.502,VALID,0.100563,VALID,24.4841,VALID,192,VALID,1.67227,
2008-05-08, 00:57:04,VALID,1000.85,VALID,0,VALID,101.266,VALID,0,VALID,24.5035,VALID,189,VALID,2.21055,
2008-05-08, 00:58:04,VALID,1000.84,VALID,0,VALID,101.151,VALID,0,VALID,24.4841,VALID,194,VALID,1.06641,
2008-05-08, 00:59:04,VALID,1000.87,VALID,0,VALID,101.106,VALID,0,VALID,24.523,VALID,182,VALID,1.15898,
2008-05-08, 01:00:04,VALID,1000.86,VALID,0,VALID,101.06,VALID,0,VALID,24.5425,VALID,186,VALID,2.30469,
2008-05-08, 01:01:04,VALID,1000.85,VALID,0,VALID,101.037,VALID,0,VALID,24.5425,VALID,213,VALID,1.52109,
2008-05-08, 01:02:04,VALID,1000.86,VALID,0,VALID,100.991,VALID,0,VALID,24.523,VALID,183,VALID,1.38867,
2008-05-08, 01:03:04,VALID,1000.82,VALID,0,VALID,101.029,VALID,0,VALID,24.523,VALID,192,VALID,1.54688,
2008-05-08, 01:04:04,VALID,1000.78,VALID,0,VALID,100.884,VALID,0,VALID,24.523,VALID,214,VALID,1.63594,
2008-05-08, 01:05:04,VALID,1000.81,VALID,0,VALID,100.831,VALID,0,VALID,24.523,VALID,192,VALID,1.0875,
2008-05-08, 01:06:04,VALID,1000.79,VALID,0,VALID,100.854,VALID,0,VALID,24.5425,VALID,191,VALID,1.65781,
2008-05-08, 01:07:04,VALID,1000.81,VALID,0.5,VALID,100.861,VALID,0,VALID,24.562,VALID,190,VALID,0.992188,
2008-05-08, 01:08:04,VALID,1000.81,VALID,0,VALID,100.953,VALID,0,VALID,24.6009,VALID,152,VALID,1.44844,
2008-05-08, 01:09:04,VALID,1000.84,VALID,0,VALID,101.022,VALID,0,VALID,24.6009,VALID,206,VALID,1.28711,
2008-05-08, 01:10:04,VALID,1000.81,VALID,0,INVALID,109.81,VALID,0,VALID,24.4646,VALID,194,VALID,2.80508,
2008-05-08, 01:11:04,VALID,1000.83,VALID,0,VALID,104,VALID,0,VALID,24.3673,VALID,191,VALID,2.42031,
2008-05-08, 01:12:04,VALID,1000.83,VALID,0,VALID,104,VALID,0,VALID,24.3088,VALID,172,VALID,3,
2008-05-08, 01:13:04,VALID,1000.83,VALID,0,VALID,104,VALID,0,VALID,24.2699,VALID,183,VALID,2.81992,
2008-05-08, 01:14:04,VALID,1000.8,VALID,0,VALID,104,VALID,0,VALID,24.2504,VALID,203,VALID,2.58906,
2008-05-08, 01:15:04,VALID,1000.8,VALID,0,VALID,104,VALID,0,VALID,24.2504,VALID,160,VALID,1.30352,
2008-05-08, 01:16:04,VALID,1000.77,VALID,0,VALID,104,VALID,0,VALID,24.231,VALID,169,VALID,1.3418,
2008-05-08, 01:17:04,VALID,1000.81,VALID,0,VALID,104,VALID,0,VALID,24.231,VALID,178,VALID,3.14922,
2008-05-08, 01:18:04,VALID,1000.77,VALID,0,VALID,104,VALID,0,VALID,24.2115,VALID,183,VALID,1.87305,
2008-05-08, 01:19:04,VALID,1000.81,VALID,0,VALID,104,VALID,0,VALID,24.2115,VALID,179,VALID,1.99063,
2008-05-08, 01:20:04,VALID,1000.79,VALID,0,VALID,104,VALID,0,VALID,24.1726,VALID,182,VALID,2.48281,
2008-05-08, 01:21:04,VALID,1000.81,VALID,0,VALID,104,VALID,0,VALID,24.1336,VALID,169,VALID,1.91289,
2008-05-08, 01:22:04,VALID,1000.81,VALID,0,VALID,104,VALID,0,VALID,24.0947,VALID,198,VALID,1.60586,
2008-05-08, 01:23:04,VALID,1000.85,VALID,0,VALID,104,VALID,0,VALID,24.0363,VALID,177,VALID,1.68203,
2008-05-08, 01:24:04,VALID,1000.86,VALID,0,VALID,104,VALID,0,VALID,24.0168,VALID,175,VALID,1.31406,
2008-05-08, 01:25:04,VALID,1000.89,VALID,0,VALID,104,VALID,0,VALID,24.0168,VALID,203,VALID,1.85039,
2008-05-08, 01:26:04,VALID,1000.93,VALID,0,VALID,104,VALID,0,VALID,23.9584,VALID,188,VALID,1.55234,
2008-05-08, 01:27:04,VALID,1000.92,VALID,0,VALID,104,VALID,0,VALID,23.9584,VALID,163,VALID,2.03398,
2008-05-08, 01:28:04,VALID,1000.99,VALID,0,VALID,104,VALID,0,VALID,23.9779,VALID,150,VALID,1.45469,
2008-05-08, 01:29:04,VALID,1000.99,VALID,0,VALID,104,VALID,0,VALID,23.9779,VALID,186,VALID,1.69414,
2008-05-08, 01:30:04,VALID,1001.02,VALID,0,VALID,104,VALID,0,VALID,23.9584,VALID,189,VALID,1.59336,
2008-05-08, 01:31:04,VALID,1001.08,VALID,0,VALID,104,VALID,0,VALID,23.9584,VALID,182,VALID,2.28555,
2008-05-08, 01:32:04,VALID,1001.06,VALID,0,VALID,104,VALID,0,VALID,23.9389,VALID,182,VALID,1.01484,
2008-05-08, 01:33:04,VALID,1001.04,VALID,0,VALID,104,VALID,0,VALID,23.9584,VALID,166,VALID,1.19609,
2008-05-08, 01:34:04,VALID,1001.06,VALID,0,VALID,104,VALID,0,VALID,23.9797,VALID,202,VALID,1.62227,
2008-05-08, 01:35:04,VALID,1001.05,VALID,0.5,VALID,104,VALID,0,VALID,23.9992,VALID,190,VALID,1.28477,
2008-05-08, 01:36:04,VALID,1001.05,VALID,0,VALID,104,VALID,0,VALID,23.9973,VALID,145,VALID,1.23242,
2008-05-08, 01:37:04,VALID,1001.08,VALID,0,VALID,104,VALID,0,VALID,24.0168,VALID,224,VALID,1.98828,
2008-05-08, 01:38:04,VALID,1001.04,VALID,0,VALID,104,VALID,0,VALID,24.0381,VALID,188,VALID,1.68125,
2008-05-08, 01:39:04,VALID,1001.04,VALID,0,VALID,104,VALID,0,VALID,24.0557,VALID,178,VALID,2.37266,
2008-05-08, 01:40:04,VALID,1001.02,VALID,0,VALID,104,VALID,0,VALID,24.0539,VALID,194,VALID,1.11094,
2008-05-08, 01:41:04,VALID,1001.02,VALID,0,VALID,104,VALID,0,VALID,24.1142,VALID,186,VALID,1.56094,
2008-05-08, 01:42:04,VALID,1001,VALID,0,VALID,104,VALID,0,VALID,24.1355,VALID,186,VALID,2.17461,
2008-05-08, 01:43:04,VALID,1001,VALID,0,VALID,104,VALID,0,VALID,24.1726,VALID,180,VALID,1.43281,
2008-05-08, 01:44:04,VALID,1000.98,VALID,0,VALID,104,VALID,0,VALID,24.2115,VALID,166,VALID,1.86641,
2008-05-08, 01:45:04,VALID,1000.97,VALID,0,VALID,104,VALID,0,VALID,24.231,VALID,185,VALID,1.24492,
2008-05-08, 01:46:04,VALID,1000.96,VALID,0,VALID,104,VALID,0,VALID,24.2504,VALID,170,VALID,0.874219,
2008-05-08, 01:47:04,VALID,1000.94,VALID,0,VALID,104,VALID,0,VALID,24.2894,VALID,174,VALID,1.03086,
2008-05-08, 01:48:04,VALID,1000.93,VALID,0,VALID,104,VALID,0,VALID,24.3283,VALID,161,VALID,1.56172,
2008-05-08, 01:49:04,VALID,1000.87,VALID,0,VALID,104,VALID,0,VALID,24.3478,VALID,155,VALID,2.30781,
2008-05-08, 01:50:04,VALID,1000.91,VALID,0,VALID,104,VALID,0,VALID,24.3478,VALID,172,VALID,1.41836,
2008-05-08, 01:51:04,VALID,1000.91,VALID,0,VALID,104,VALID,0,VALID,24.3867,VALID,170,VALID,1.94609,
2008-05-08, 01:52:04,VALID,1000.89,VALID,0,VALID,104,VALID,0,VALID,24.3886,VALID,173,VALID,1.77852,
2008-05-08, 01:53:04,VALID,1000.9,VALID,0,VALID,104,VALID,0,VALID,24.3886,VALID,193,VALID,1.68633,
2008-05-08, 01:54:04,VALID,1000.85,VALID,0.5,VALID,104,VALID,0,VALID,24.3886,VALID,171,VALID,1.43945,
2008-05-08, 01:55:04,VALID,1000.86,VALID,0,VALID,104,VALID,0,VALID,24.3673,VALID,182,VALID,2.08672,
2008-05-08, 01:56:04,VALID,1000.83,VALID,0,VALID,104,VALID,0,VALID,24.3867,VALID,168,VALID,1.1875,
2008-05-08, 01:57:04,VALID,1000.82,VALID,0,VALID,104,VALID,0,VALID,24.3867,VALID,193,VALID,1.38555,
2008-05-08, 01:58:04,VALID,1000.8,VALID,0,VALID,104,VALID,0,VALID,24.408,VALID,125,VALID,1.05625,
2008-05-08, 01:59:04,VALID,1000.77,VALID,0,VALID,104,VALID,0,VALID,24.408,VALID,193,VALID,1.44141,
2008-05-08, 02:00:04,VALID,1000.76,VALID,0,VALID,104,VALID,0,VALID,24.3867,VALID,171,VALID,0.841406,
2008-05-08, 02:01:04,VALID,1000.73,VALID,0,VALID,104,VALID,0,VALID,24.4062,VALID,213,VALID,1.26914,
2008-05-08, 02:02:04,VALID,1000.74,VALID,0,VALID,104,VALID,0,VALID,24.3867,VALID,199,VALID,1.33594,
2008-05-08, 02:03:04,VALID,1000.74,VALID,0,VALID,104,VALID,0,VALID,24.4043,VALID,201,VALID,1.13359,
2008-05-08, 02:04:04,VALID,1000.72,VALID,0,VALID,104,VALID,0,VALID,24.4257,VALID,188,VALID,1.21328,
2008-05-08, 02:05:04,VALID,1000.74,VALID,0,VALID,104,VALID,0,VALID,24.4062,VALID,195,VALID,0.997656,
2008-05-08, 02:06:04,VALID,1000.76,VALID,0,VALID,104,VALID,0,VALID,24.4257,VALID,188,VALID,0.933203,
2008-05-08, 02:07:04,VALID,1000.76,VALID,0,VALID,104,VALID,0,VALID,24.4062,VALID,190,VALID,1.24453,
2008-05-08, 02:08:04,VALID,1000.76,VALID,0,VALID,104,VALID,0,VALID,24.4062,VALID,192,VALID,1.1668,
2008-05-08, 02:09:04,VALID,1000.78,VALID,0,VALID,104,VALID,0,VALID,24.3673,VALID,187,VALID,1.32109,
2008-05-08, 02:10:04,VALID,1000.75,VALID,0,VALID,104,VALID,0,VALID,24.3478,VALID,164,VALID,0.9375,
2008-05-08, 02:11:04,VALID,1000.73,VALID,0,VALID,104,VALID,0,VALID,24.3691,VALID,187,VALID,1.95039,
2008-05-08, 02:12:04,VALID,1000.74,VALID,0,VALID,104,VALID,0,VALID,24.3691,VALID,178,VALID,1.08008,
2008-05-08, 02:13:04,VALID,1000.72,VALID,0,VALID,104,VALID,0,VALID,24.3691,VALID,186,VALID,0.987109,
2008-05-08, 02:14:04,VALID,1000.72,VALID,0,VALID,104,VALID,0,VALID,24.3673,VALID,160,VALID,0.839844,
2008-05-08, 02:15:04,VALID,1000.73,VALID,0,VALID,104,VALID,0,VALID,24.3673,VALID,153,VALID,1.67852,
2008-05-08, 02:16:04,VALID,1000.73,VALID,0.5,VALID,104,VALID,0,VALID,24.3867,VALID,197,VALID,1.14023,
2008-05-08, 02:17:04,VALID,1000.72,VALID,0,VALID,104,VALID,0,VALID,24.408,VALID,159,VALID,1.08125,
2008-05-08, 02:18:04,VALID,1000.7,VALID,0,VALID,104,VALID,0,VALID,24.3673,VALID,162,VALID,0.582812,
2008-05-08, 02:19:04,VALID,1000.7,VALID,0,VALID,104,VALID,0,VALID,24.3867,VALID,127,VALID,0.771484,
2008-05-08, 02:20:04,VALID,1000.71,VALID,0,VALID,104,VALID,0,VALID,24.408,VALID,175,VALID,0.410937,
2008-05-08, 02:21:04,VALID,1000.72,VALID,0,VALID,104,VALID,0.100563,VALID,24.3849,VALID,179,VALID,0.644922,
2008-05-08, 02:22:04,VALID,1000.7,VALID,0,VALID,104,VALID,0,VALID,24.3867,VALID,185,VALID,0.976172,
2008-05-08, 02:23:04,VALID,1000.7,VALID,0,VALID,104,VALID,0.100563,VALID,24.3849,VALID,189,VALID,0.998047,
2008-05-08, 02:24:04,VALID,1000.69,VALID,0,VALID,104,VALID,0.100563,VALID,24.4043,VALID,173,VALID,0.996875,
2008-05-08, 02:25:04,VALID,1000.69,VALID,0,VALID,104,VALID,0.100563,VALID,24.4043,VALID,181,VALID,0.702344,
2008-05-08, 02:26:04,VALID,1000.65,VALID,0,VALID,104,VALID,0.100563,VALID,24.4451,VALID,153,VALID,0.667969,
2008-05-08, 02:27:04,VALID,1000.69,VALID,0,VALID,104,VALID,0.100563,VALID,24.4238,VALID,162,VALID,0.851563,
2008-05-08, 02:28:04,VALID,1000.68,VALID,0,VALID,104,VALID,0.100563,VALID,24.4238,VALID,158,VALID,0.552734,
2008-05-08, 02:29:04,VALID,1000.65,VALID,0,VALID,104,VALID,0.100563,VALID,24.4238,VALID,174,VALID,0.385938,
2008-05-08, 02:30:04,VALID,1000.68,VALID,0,VALID,104,VALID,0.100563,VALID,24.4043,VALID,201,VALID,1.1832,
2008-05-08, 02:31:04,VALID,1000.68,VALID,0,VALID,104,VALID,0.100563,VALID,24.4043,VALID,195,VALID,1.75937,
2008-05-08, 02:32:04,VALID,1000.72,VALID,0,VALID,104,VALID,0.100563,VALID,24.3849,VALID,181,VALID,2.23828,
2008-05-08, 02:33:04,VALID,1000.72,VALID,0,VALID,104,VALID,0.100563,VALID,24.3459,VALID,159,VALID,1.43672,
2008-05-08, 02:34:04,VALID,1000.69,VALID,0,VALID,104,VALID,0.100563,VALID,24.3265,VALID,147,VALID,1.24023,
2008-05-08, 02:35:04,VALID,1000.68,VALID,0,VALID,104,VALID,0.100563,VALID,24.2875,VALID,158,VALID,1.54883,
2008-05-08, 02:36:04,VALID,1000.69,VALID,0,VALID,104,VALID,0,VALID,24.2894,VALID,148,VALID,0.582422,
2008-05-08, 02:37:04,VALID,1000.68,VALID,0,VALID,104,VALID,0,VALID,24.2717,VALID,149,VALID,1.20195,
2008-05-08, 02:38:04,VALID,1000.68,VALID,0,VALID,104,VALID,0,VALID,24.231,VALID,134,VALID,1.75352,
2008-05-08, 02:39:04,VALID,1000.66,VALID,0,VALID,104,VALID,0,VALID,24.2133,VALID,149,VALID,1.66914,
2008-05-08, 02:40:04,VALID,1000.62,VALID,0,VALID,104,VALID,0,VALID,24.1336,VALID,153,VALID,1.5957,
2008-05-08, 02:41:04,VALID,1000.61,VALID,0,VALID,104,VALID,0,VALID,24.1142,VALID,130,VALID,1.78867,
2008-05-08, 02:42:04,VALID,1000.59,VALID,0,VALID,104,VALID,0,VALID,24.1142,VALID,112,VALID,1.32539,
2008-05-08, 02:43:04,VALID,1000.6,VALID,0,VALID,104,VALID,0,VALID,24.0752,VALID,135,VALID,1.17305,
2008-05-08, 02:44:04,VALID,1000.57,VALID,0,VALID,104,VALID,0,VALID,24.0557,VALID,129,VALID,0.900391,
2008-05-08, 02:45:04,VALID,1000.54,VALID,0,VALID,104,VALID,0,VALID,23.9779,VALID,129,VALID,1.81094,
2008-05-08, 02:46:04,VALID,1000.5,VALID,0,VALID,104,VALID,0,VALID,23.9797,VALID,139,VALID,1.10703,
2008-05-08, 02:47:04,VALID,1000.47,VALID,0,VALID,104,VALID,0,VALID,23.9408,VALID,109,VALID,0.949219,
2008-05-08, 02:48:04,VALID,1000.43,VALID,0,VALID,104,VALID,0,VALID,23.8611,VALID,115,VALID,1.575,
2008-05-08, 02:49:04,VALID,1000.4,VALID,0,VALID,104,VALID,0,VALID,23.8416,VALID,113,VALID,0.846875,
2008-05-08, 02:50:04,VALID,1000.32,VALID,0,VALID,104,VALID,0,VALID,23.8434,VALID,109,VALID,0.891016,
2008-05-08, 02:51:04,VALID,1000.29,VALID,0,VALID,104,VALID,0,VALID,23.8416,VALID,113,VALID,1.06172,
2008-05-08, 02:52:04,VALID,1000.25,VALID,0,VALID,104,VALID,0,VALID,23.8221,VALID,118,VALID,1.50391,
2008-05-08, 02:53:04,VALID,1000.23,VALID,0,VALID,104,VALID,0,VALID,23.8221,VALID,118,VALID,0.835156,
2008-05-08, 02:54:04,VALID,1000.23,VALID,0,VALID,104,VALID,0,VALID,23.8221,VALID,114,VALID,1.12695,
2008-05-08, 02:55:04,VALID,1000.23,VALID,0,VALID,104,VALID,0,VALID,23.7832,VALID,121,VALID,1.04375,
2008-05-08, 02:56:04,VALID,1000.22,VALID,0,VALID,104,VALID,0,VALID,23.8027,VALID,124,VALID,0.897266,
2008-05-08, 02:57:04,VALID,1000.21,VALID,0,VALID,104,VALID,0,VALID,23.7832,VALID,126,VALID,0.535547,
2008-05-08, 02:58:04,VALID,1000.19,VALID,0,VALID,104,VALID,0,VALID,23.7053,VALID,102,VALID,0.860547,
2008-05-08, 02:59:04,VALID,1000.19,VALID,0,VALID,104,VALID,0,VALID,23.7053,VALID,102,VALID,0.611328,
2008-05-08, 03:00:04,VALID,1000.21,VALID,0,VALID,104,VALID,0,VALID,23.7053,VALID,114,VALID,0.760547,
2008-05-08, 03:01:04,VALID,1000.22,VALID,0,VALID,104,VALID,0,VALID,23.6859,VALID,114,VALID,0.613281,
2008-05-08, 03:02:04,VALID,1000.24,VALID,0,VALID,104,VALID,0,VALID,23.7035,VALID,136,VALID,1.04609,
2008-05-08, 03:03:04,VALID,1000.26,VALID,0,VALID,104,VALID,0.100563,VALID,23.7248,VALID,128,VALID,0.801172,
2008-05-08, 03:04:04,VALID,1000.24,VALID,0,VALID,104,VALID,0,VALID,23.7461,VALID,123,VALID,0.667969,
2008-05-08, 03:05:04,VALID,1000.27,VALID,0,VALID,104,VALID,0,VALID,23.7053,VALID,118,VALID,0.477344,
2008-05-08, 03:06:04,VALID,1000.27,VALID,0,VALID,104,VALID,0,VALID,23.7035,VALID,118,VALID,0.511328,
2008-05-08, 03:07:04,VALID,1000.27,VALID,0,VALID,104,VALID,0,VALID,23.7248,VALID,96,VALID,0.666797,
2008-05-08, 03:08:04,VALID,1000.28,VALID,0,VALID,104,VALID,0,VALID,23.7248,VALID,95,VALID,0.421484,
2008-05-08, 03:09:04,VALID,1000.28,VALID,0,VALID,104,VALID,0.100563,VALID,23.7443,VALID,99,VALID,0.823828,
2008-05-08, 03:10:04,VALID,1000.27,VALID,0,VALID,104,VALID,0,VALID,23.723,VALID,102,VALID,0.435156,
2008-05-08, 03:11:04,VALID,1000.29,VALID,0,VALID,104,VALID,0,VALID,23.7035,VALID,101,VALID,0.679297,
2008-05-08, 03:12:04,VALID,1000.28,VALID,0,VALID,104,VALID,0.100563,VALID,23.7035,VALID,83,VALID,0.656641,
2008-05-08, 03:13:04,VALID,1000.27,VALID,0,VALID,104,VALID,0,VALID,23.7443,VALID,101,VALID,0.322266,
2008-05-08, 03:14:04,VALID,1000.27,VALID,0,VALID,104,VALID,0,VALID,23.7248,VALID,96,VALID,0.380078,
2008-05-08, 03:15:04,VALID,1000.27,VALID,0,VALID,104,VALID,0,VALID,23.7248,VALID,95,VALID,0.756641,
2008-05-08, 03:16:04,VALID,1000.25,VALID,0,VALID,104,VALID,0,VALID,23.7248,VALID,82,VALID,0.349609,
2008-05-08, 03:17:04,VALID,1000.22,VALID,0,VALID,104,VALID,0,VALID,23.7248,VALID,80,VALID,0.382422,
2008-05-08, 03:18:04,VALID,1000.21,VALID,0,VALID,104,VALID,0.100563,VALID,23.7035,VALID,79,VALID,0.1875,
2008-05-08, 03:19:04,VALID,1000.21,VALID,0,VALID,104,VALID,0,VALID,23.7248,VALID,79,VALID,0.318359,
2008-05-08, 03:20:04,VALID,1000.21,VALID,0,VALID,104,VALID,0,VALID,23.6841,VALID,79,VALID,0.469922,
2008-05-08, 03:21:04,VALID,1000.17,VALID,0,VALID,104,VALID,0,VALID,23.7053,VALID,79,VALID,0.525781,
2008-05-08, 03:22:04,VALID,1000.17,VALID,0,VALID,104,VALID,0.100563,VALID,23.6841,VALID,93,VALID,0.502344,
2008-05-08, 03:23:04,VALID,1000.15,VALID,0,VALID,104,VALID,0,VALID,23.6664,VALID,81,VALID,0.237891,
2008-05-08, 03:24:04,VALID,1000.17,VALID,0,VALID,104,VALID,0,VALID,23.6664,VALID,81,VALID,0.416797,
2008-05-08, 03:25:04,VALID,1000.16,VALID,0,VALID,104,VALID,0,VALID,23.6664,VALID,80,VALID,0.482031,
2008-05-08, 03:26:04,VALID,1000.15,VALID,0,VALID,104,VALID,0,VALID,23.6664,VALID,66,VALID,0.359375,
2008-05-08, 03:27:04,VALID,1000.16,VALID,0,VALID,104,VALID,0,VALID,23.6664,VALID,66,VALID,0.23125,
2008-05-08, 03:28:04,VALID,1000.19,VALID,0,VALID,104,VALID,0,VALID,23.6469,VALID,68,VALID,0.332812,
2008-05-08, 03:29:04,VALID,1000.16,VALID,0,VALID,104,VALID,0,VALID,23.6664,VALID,68,VALID,0.401953,
2008-05-08, 03:30:04,VALID,1000.16,VALID,0,VALID,104,VALID,0,VALID,23.6469,VALID,74,VALID,0.373047,
2008-05-08, 03:31:04,VALID,1000.15,VALID,0,VALID,104,VALID,0,VALID,23.6257,VALID,75,VALID,0.324609,
2008-05-08, 03:32:04,VALID,1000.19,VALID,0,VALID,104,VALID,0,VALID,23.6062,VALID,98,VALID,0.809766,
2008-05-08, 03:33:04,VALID,1000.22,VALID,0,VALID,104,VALID,0,VALID,23.6469,VALID,112,VALID,0.664453,
2008-05-08, 03:34:04,VALID,1000.22,VALID,0,VALID,104,VALID,0,VALID,23.6469,VALID,111,VALID,0.724609,
2008-05-08, 03:35:04,VALID,1000.22,VALID,0,VALID,104,VALID,0,VALID,23.6275,VALID,111,VALID,0.423828,
2008-05-08, 03:36:04,VALID,1000.23,VALID,0,VALID,104,VALID,0,VALID,23.6275,VALID,111,VALID,0.410937,
2008-05-08, 03:37:04,VALID,1000.17,VALID,0,VALID,104,VALID,0,VALID,23.6275,VALID,111,VALID,0.299609,
2008-05-08, 03:38:04,VALID,1000.19,VALID,0,VALID,104,VALID,0,VALID,23.6062,VALID,111,VALID,0.227344,
2008-05-08, 03:39:04,VALID,1000.19,VALID,0,VALID,104,VALID,0,VALID,23.6469,VALID,111,VALID,0,
2008-05-08, 03:40:04,VALID,1000.14,VALID,0,VALID,104,VALID,0,VALID,23.608,VALID,111,VALID,0,
2008-05-08, 03:41:04,VALID,1000.14,VALID,0,VALID,104,VALID,0,VALID,23.6062,VALID,111,VALID,0,
2008-05-08, 03:42:04,VALID,1000.1,VALID,0,VALID,104,VALID,0.100563,VALID,23.608,VALID,111,VALID,0,
2008-05-08, 03:43:04,VALID,1000.14,VALID,0,VALID,104,VALID,0,VALID,23.5673,VALID,111,VALID,0,
2008-05-08, 03:44:04,VALID,1000.13,VALID,0,VALID,104,VALID,0.100563,VALID,23.5478,VALID,111,VALID,0,
2008-05-08, 03:45:04,VALID,1000.07,VALID,0,VALID,104,VALID,0.100563,VALID,23.5478,VALID,111,VALID,0,
2008-05-08, 03:46:04,VALID,1000.09,VALID,0,VALID,104,VALID,0.100563,VALID,23.5478,VALID,111,VALID,0,
2008-05-08, 03:47:04,VALID,1000.08,VALID,0,VALID,104,VALID,0,VALID,23.5284,VALID,111,VALID,0,
2008-05-08, 03:48:04,VALID,1000.09,VALID,0,VALID,104,VALID,0,VALID,23.5302,VALID,111,VALID,0,
2008-05-08, 03:49:04,VALID,1000.06,VALID,0,VALID,104,VALID,0,VALID,23.5302,VALID,111,VALID,0.0359375,
2008-05-08, 03:50:04,VALID,1000.06,VALID,0,VALID,104,VALID,0,VALID,23.5302,VALID,106,VALID,0.373047,
2008-05-08, 03:51:04,VALID,1000.05,VALID,0,VALID,104,VALID,0,VALID,23.5302,VALID,106,VALID,0.357031,
2008-05-08, 03:52:04,VALID,1000.06,VALID,0,VALID,104,VALID,0,VALID,23.5107,VALID,106,VALID,0.334766,